Zurück zum Katalog

BEIDOU 3 IGSO-3

AktivNavigationGEO
NORAD 44709·PAYLOAD·🇨🇳 China

Gestartet Nov 4, 2019 von Xichang Satellite Launch Center

Loading…

TLE

AktuellSource: Space-Track

Epoche: Sep 14, 2026, 11:09 UTC

1 44709U 19073A   26257.46492159 -.00000170  00000-0  00000-0 0  9995
2 44709  54.6511 279.9243 0046838 198.0895 161.7790  1.00263123 25357

Verfolge BEIDOU 3 IGSO-3 in Echtzeit mit AllMySat

Download on the App Store